THA225 VTBS-VTSP

Flight info

Callsign THA225
Flight time 1h 3m
Altitude 34000
Route VANKO1J VANKO Y8 SAVSA SAVSA1C
Aircraft A320/M-SDE3FGHIRWY/LB1

Departure

Time 2026-05-07 15:26
Airport Suvarnabhumi Airport (VTBS)

Arrival

Time 2026-05-07 16:29
Airport Phuket International Airport (VTSP)
Time Latitude Longitude Altitude Speed Heading
2026-05-07 15:09 13.69063 100.75670 13 ft 0 kts 194°
2026-05-07 15:20 13.69069 100.75672 40 ft 4 kts 194°
2026-05-07 15:20 13.69095 100.75679 13 ft 4 kts 194°
2026-05-07 15:20 13.69122 100.75685 15 ft 4 kts 186°
2026-05-07 15:21 13.69146 100.75683 14 ft 4 kts 141°
2026-05-07 15:21 13.69155 100.75666 14 ft 2 kts 104°
2026-05-07 15:21 13.69156 100.75664 14 ft 0 kts 104°
2026-05-07 15:23 13.69155 100.75666 14 ft 1 kts 104°
2026-05-07 15:23 13.69143 100.75717 16 ft 11 kts 105°
2026-05-07 15:23 13.69121 100.75799 13 ft 13 kts 104°
2026-05-07 15:23 13.69098 100.75895 13 ft 13 kts 104°
2026-05-07 15:24 13.69083 100.75954 13 ft 5 kts 104°
2026-05-07 15:24 13.69082 100.75957 13 ft 2 kts 104°
2026-05-07 15:24 13.69069 100.76008 13 ft 10 kts 104°
2026-05-07 15:24 13.69021 100.76062 13 ft 11 kts 168°
2026-05-07 15:25 13.68997 100.76059 13 ft 0 kts 194°
2026-05-07 15:25 13.68921 100.76040 15 ft 39 kts 194°
2026-05-07 15:25 13.68438 100.75913 16 ft 101 kts 194°
2026-05-07 15:25 13.67592 100.75688 13 ft 147 kts 194°
2026-05-07 15:26 13.66529 100.75399 355 ft 161 kts 195°
2026-05-07 15:26 13.65437 100.75132 910 ft 163 kts 183°
2026-05-07 15:26 13.64288 100.75158 1444 ft 171 kts 179°
2026-05-07 15:26 13.63026 100.75188 1655 ft 192 kts 179°
2026-05-07 15:27 13.61611 100.75212 1852 ft 213 kts 180°
2026-05-07 15:27 13.60099 100.75296 2213 ft 230 kts 173°
2026-05-07 15:27 13.58441 100.75615 2582 ft 253 kts 166°
2026-05-07 15:27 13.56719 100.76124 3255 ft 261 kts 163°
2026-05-07 15:28 13.54965 100.76693 4024 ft 267 kts 162°
2026-05-07 15:28 13.53180 100.77272 4834 ft 271 kts 162°
2026-05-07 15:28 13.51366 100.77841 5653 ft 273 kts 163°
2026-05-07 15:28 13.49522 100.78373 6456 ft 277 kts 168°
2026-05-07 15:29 13.47588 100.78493 7180 ft 282 kts 184°
2026-05-07 15:29 13.45655 100.78069 7900 ft 288 kts 198°
2026-05-07 15:29 13.43866 100.77113 8600 ft 294 kts 216°
2026-05-07 15:29 13.42453 100.75581 9300 ft 300 kts 236°
2026-05-07 15:30 13.41612 100.73635 9779 ft 306 kts 256°
2026-05-07 15:30 13.41333 100.71456 9879 ft 314 kts 264°
2026-05-07 15:30 13.41120 100.69127 9906 ft 334 kts 264°
2026-05-07 15:30 13.40907 100.66764 9908 ft 335 kts 264°
2026-05-07 15:31 13.40690 100.64407 9910 ft 332 kts 264°
2026-05-07 15:31 13.40471 100.62092 9903 ft 319 kts 264°
2026-05-07 15:31 13.40248 100.59797 9903 ft 322 kts 264°
2026-05-07 15:31 13.39935 100.57516 9904 ft 332 kts 256°
2026-05-07 15:32 13.39152 100.55243 9903 ft 342 kts 243°
2026-05-07 15:32 13.37860 100.53181 10180 ft 346 kts 229°
2026-05-07 15:32 13.36144 100.51430 10777 ft 348 kts 219°
2026-05-07 15:32 13.34314 100.49787 11396 ft 351 kts 219°
2026-05-07 15:33 13.32496 100.48152 12016 ft 353 kts 219°
2026-05-07 15:33 13.30641 100.46485 12628 ft 355 kts 219°
2026-05-07 15:33 13.28775 100.44809 13216 ft 358 kts 219°
2026-05-07 15:33 13.26892 100.43117 13797 ft 361 kts 219°
2026-05-07 15:34 13.24996 100.41414 14283 ft 364 kts 219°
2026-05-07 15:34 13.23079 100.39697 14775 ft 366 kts 219°
2026-05-07 15:34 13.21145 100.37969 15266 ft 370 kts 219°
2026-05-07 15:34 13.19200 100.36230 15745 ft 373 kts 219°
2026-05-07 15:35 13.17234 100.34472 16230 ft 376 kts 219°
2026-05-07 15:35 13.15259 100.32703 16709 ft 379 kts 219°
2026-05-07 15:35 13.13260 100.30911 17192 ft 382 kts 219°
2026-05-07 15:35 13.11253 100.29110 17672 ft 385 kts 220°
2026-05-07 15:36 13.09252 100.27316 17866 ft 387 kts 220°
2026-05-07 15:36 13.07223 100.25499 17901 ft 387 kts 219°
2026-05-07 15:36 13.05191 100.23682 17933 ft 389 kts 219°
2026-05-07 15:36 13.03143 100.21853 18367 ft 391 kts 219°
2026-05-07 15:37 13.01084 100.20015 18789 ft 393 kts 219°
2026-05-07 15:37 12.99029 100.18147 19192 ft 396 kts 221°
2026-05-07 15:37 12.97035 100.16181 19601 ft 399 kts 224°
2026-05-07 15:37 12.95079 100.14131 20010 ft 402 kts 225°
2026-05-07 15:38 12.93143 100.12048 20420 ft 405 kts 225°
2026-05-07 15:38 12.91198 100.09949 20810 ft 408 kts 225°
2026-05-07 15:38 12.89227 100.07843 21193 ft 411 kts 224°
2026-05-07 15:38 12.87228 100.05736 21578 ft 413 kts 224°
2026-05-07 15:39 12.85230 100.03650 21943 ft 416 kts 224°
2026-05-07 15:39 12.83189 100.01534 22312 ft 419 kts 224°
2026-05-07 15:39 12.81128 99.99400 22682 ft 422 kts 224°
2026-05-07 15:39 12.79060 99.97255 23053 ft 424 kts 224°
2026-05-07 15:40 12.76979 99.95096 23406 ft 427 kts 224°
2026-05-07 15:40 12.74884 99.92923 23709 ft 430 kts 224°
2026-05-07 15:40 12.72780 99.90740 24012 ft 431 kts 224°
2026-05-07 15:40 12.70666 99.88544 24316 ft 433 kts 224°
2026-05-07 15:41 12.68572 99.86367 24622 ft 435 kts 224°
2026-05-07 15:41 12.66443 99.84154 24929 ft 437 kts 224°
2026-05-07 15:41 12.64308 99.81936 25250 ft 438 kts 224°
2026-05-07 15:41 12.62100 99.79777 25555 ft 439 kts 217°
2026-05-07 15:42 12.59577 99.78031 25849 ft 438 kts 206°
2026-05-07 15:42 12.56778 99.76811 26141 ft 438 kts 195°
2026-05-07 15:42 12.53781 99.76158 26430 ft 437 kts 184°
2026-05-07 15:42 12.50776 99.76047 26701 ft 438 kts 178°
2026-05-07 15:43 12.47721 99.76058 26989 ft 440 kts 178°
2026-05-07 15:43 12.44643 99.76065 27269 ft 442 kts 178°
2026-05-07 15:43 12.41563 99.76070 27547 ft 444 kts 178°
2026-05-07 15:43 12.38464 99.76073 27825 ft 446 kts 178°
2026-05-07 15:44 12.35350 99.76073 28088 ft 448 kts 178°
2026-05-07 15:44 12.32222 99.76072 28375 ft 450 kts 178°
2026-05-07 15:44 12.29086 99.76072 28661 ft 452 kts 178°
2026-05-07 15:44 12.25933 99.76070 28951 ft 454 kts 178°
2026-05-07 15:45 12.22768 99.76071 29245 ft 456 kts 178°
2026-05-07 15:45 12.19620 99.76073 29496 ft 459 kts 178°
2026-05-07 15:45 12.16417 99.76076 29767 ft 462 kts 178°
2026-05-07 15:45 12.13195 99.76078 30027 ft 464 kts 178°
2026-05-07 15:46 12.06822 99.76083 30502 ft 467 kts 178°
2026-05-07 15:46 12.03565 99.76087 30782 ft 467 kts 178°
2026-05-07 15:46 12.00316 99.76092 31152 ft 466 kts 178°
2026-05-07 15:47 11.97082 99.76096 31533 ft 464 kts 178°
2026-05-07 15:47 11.93857 99.76099 31915 ft 462 kts 179°
2026-05-07 15:47 11.90647 99.76101 32305 ft 461 kts 179°
2026-05-07 15:47 11.87446 99.76103 32688 ft 459 kts 179°
2026-05-07 15:48 11.84253 99.76108 33037 ft 459 kts 179°
2026-05-07 15:48 11.81066 99.76113 33395 ft 458 kts 179°
2026-05-07 15:48 11.77877 99.76115 33758 ft 457 kts 179°
2026-05-07 15:48 11.74699 99.76115 33880 ft 456 kts 179°
2026-05-07 15:49 11.71536 99.76118 33906 ft 453 kts 179°
2026-05-07 15:49 11.65273 99.76126 33903 ft 452 kts 179°
2026-05-07 15:50 11.58980 99.76138 33902 ft 452 kts 179°
2026-05-07 15:50 11.52688 99.76147 33898 ft 452 kts 179°
2026-05-07 15:51 11.46399 99.76145 33900 ft 452 kts 179°
2026-05-07 15:51 11.40109 99.76153 33900 ft 452 kts 179°
2026-05-07 15:52 11.33861 99.76166 33902 ft 452 kts 179°
2026-05-07 15:52 11.27569 99.76170 33905 ft 452 kts 179°
2026-05-07 15:53 11.21281 99.76173 33905 ft 452 kts 179°
2026-05-07 15:53 11.14987 99.76066 33904 ft 453 kts 185°
2026-05-07 15:54 11.08856 99.74520 33890 ft 455 kts 196°
2026-05-07 15:54 11.02834 99.72623 33881 ft 456 kts 196°
2026-05-07 15:55 10.96755 99.70715 33892 ft 457 kts 196°
2026-05-07 15:55 10.90666 99.68811 33894 ft 458 kts 196°
2026-05-07 15:56 10.84564 99.66906 33901 ft 458 kts 196°
2026-05-07 15:56 10.78474 99.64996 33904 ft 458 kts 196°
2026-05-07 15:57 10.72390 99.63086 33916 ft 457 kts 196°
2026-05-07 15:57 10.66313 99.61189 33919 ft 456 kts 196°
2026-05-07 15:58 10.60243 99.59298 33920 ft 456 kts 196°
2026-05-07 15:58 10.54219 99.57415 33919 ft 456 kts 196°
2026-05-07 15:59 10.48139 99.55511 33918 ft 456 kts 196°
2026-05-07 15:59 10.42078 99.53625 33918 ft 455 kts 195°
2026-05-07 16:00 10.36018 99.51733 33919 ft 455 kts 195°
2026-05-07 16:00 10.29968 99.49849 33921 ft 454 kts 195°
2026-05-07 16:01 10.23959 99.47981 33920 ft 454 kts 195°
2026-05-07 16:01 10.17915 99.46091 33918 ft 454 kts 195°
2026-05-07 16:02 10.11879 99.44211 33915 ft 453 kts 195°
2026-05-07 16:02 10.05853 99.42338 33914 ft 452 kts 196°
2026-05-07 16:03 9.99836 99.40466 33911 ft 452 kts 196°
2026-05-07 16:03 9.93822 99.38592 33913 ft 452 kts 196°
2026-05-07 16:04 9.87812 99.36719 33912 ft 452 kts 196°
2026-05-07 16:04 9.81836 99.34862 33908 ft 452 kts 196°
2026-05-07 16:05 9.75836 99.32999 33742 ft 447 kts 196°
2026-05-07 16:05 9.72877 99.32076 33487 ft 441 kts 196°
2026-05-07 16:05 9.69960 99.31168 33135 ft 436 kts 195°
2026-05-07 16:05 9.67065 99.30269 32648 ft 434 kts 195°
2026-05-07 16:06 9.64184 99.29374 32152 ft 432 kts 195°
2026-05-07 16:06 9.61315 99.28481 31679 ft 431 kts 195°
2026-05-07 16:06 9.59422 99.27893 31367 ft 429 kts 195°
2026-05-07 16:06 9.56568 99.27008 30894 ft 428 kts 195°
2026-05-07 16:07 9.53725 99.26127 30429 ft 426 kts 195°
2026-05-07 16:07 9.50894 99.25250 29965 ft 425 kts 195°
2026-05-07 16:07 9.48082 99.24326 29222 ft 428 kts 201°
2026-05-07 16:07 9.45385 99.22986 28569 ft 431 kts 205°
2026-05-07 16:08 9.42728 99.21615 28161 ft 426 kts 205°
2026-05-07 16:08 9.40091 99.20260 27718 ft 422 kts 205°
2026-05-07 16:08 9.37476 99.18921 27284 ft 419 kts 205°
2026-05-07 16:08 9.34879 99.17595 26860 ft 416 kts 205°
2026-05-07 16:09 9.32332 99.16294 26435 ft 414 kts 205°
2026-05-07 16:09 9.29766 99.14982 26007 ft 412 kts 205°
2026-05-07 16:09 9.27210 99.13674 25561 ft 411 kts 205°
2026-05-07 16:09 9.24663 99.12375 25121 ft 410 kts 204°
2026-05-07 16:10 9.22121 99.11078 24664 ft 409 kts 205°
2026-05-07 16:10 9.19583 99.09779 24205 ft 408 kts 205°
2026-05-07 16:10 9.17050 99.08482 23748 ft 408 kts 204°
2026-05-07 16:10 9.14517 99.07184 23229 ft 408 kts 204°
2026-05-07 16:11 9.11992 99.05892 22730 ft 404 kts 204°
2026-05-07 16:11 9.09523 99.04632 22269 ft 392 kts 204°
2026-05-07 16:11 9.07093 99.03393 21800 ft 390 kts 204°
2026-05-07 16:11 9.04679 99.02163 21346 ft 387 kts 204°
2026-05-07 16:12 9.02280 99.00941 20886 ft 385 kts 205°
2026-05-07 16:12 8.99895 98.99725 20429 ft 383 kts 205°
2026-05-07 16:12 8.97524 98.98512 19974 ft 381 kts 205°
2026-05-07 16:12 8.95163 98.97303 19514 ft 379 kts 205°
2026-05-07 16:13 8.92847 98.96118 19074 ft 377 kts 205°
2026-05-07 16:13 8.90516 98.94926 18698 ft 373 kts 205°
2026-05-07 16:13 8.88172 98.93726 18275 ft 371 kts 205°
2026-05-07 16:13 8.85899 98.92564 17754 ft 370 kts 205°
2026-05-07 16:14 8.83621 98.91402 17351 ft 365 kts 205°
2026-05-07 16:14 8.81349 98.90244 16922 ft 362 kts 205°
2026-05-07 16:14 8.79100 98.89100 16433 ft 360 kts 205°
2026-05-07 16:14 8.76876 98.87967 15969 ft 359 kts 205°
2026-05-07 16:15 8.74664 98.86840 15554 ft 355 kts 205°
2026-05-07 16:15 8.72466 98.85719 15162 ft 352 kts 205°
2026-05-07 16:15 8.70280 98.84604 14749 ft 350 kts 205°
2026-05-07 16:15 8.68106 98.83498 14308 ft 349 kts 205°
2026-05-07 16:16 8.65951 98.82404 13875 ft 348 kts 205°
2026-05-07 16:16 8.63836 98.81329 13562 ft 342 kts 205°
2026-05-07 16:16 8.61724 98.80252 12990 ft 337 kts 205°
2026-05-07 16:16 8.59665 98.79201 12536 ft 325 kts 205°
2026-05-07 16:17 8.57679 98.78186 12147 ft 313 kts 205°
2026-05-07 16:17 8.55766 98.77209 11773 ft 302 kts 205°
2026-05-07 16:17 8.53917 98.76266 11409 ft 293 kts 205°
2026-05-07 16:17 8.52113 98.75348 11064 ft 288 kts 205°
2026-05-07 16:18 8.50319 98.74434 10699 ft 290 kts 205°
2026-05-07 16:18 8.48512 98.73516 10368 ft 290 kts 205°
2026-05-07 16:18 8.46716 98.72604 10089 ft 287 kts 205°
2026-05-07 16:18 8.44957 98.71709 9748 ft 278 kts 205°
2026-05-07 16:19 8.43252 98.70844 9387 ft 270 kts 205°
2026-05-07 16:19 8.41574 98.69991 9056 ft 270 kts 205°
2026-05-07 16:19 8.39899 98.69138 8725 ft 270 kts 205°
2026-05-07 16:19 8.38225 98.68286 8475 ft 266 kts 205°
2026-05-07 16:20 8.36643 98.67479 8346 ft 250 kts 205°
2026-05-07 16:20 8.35141 98.66714 8192 ft 235 kts 205°
2026-05-07 16:20 8.33697 98.65980 7860 ft 230 kts 205°
2026-05-07 16:20 8.32281 98.65261 7469 ft 226 kts 205°
2026-05-07 16:21 8.30876 98.64549 7044 ft 226 kts 205°
2026-05-07 16:21 8.29476 98.63839 6628 ft 224 kts 205°
2026-05-07 16:21 8.28088 98.63134 6201 ft 222 kts 205°
2026-05-07 16:21 8.26711 98.62434 5764 ft 220 kts 205°
2026-05-07 16:22 8.25345 98.61739 5316 ft 220 kts 205°
2026-05-07 16:22 8.23985 98.61047 4894 ft 218 kts 205°
2026-05-07 16:22 8.22639 98.60362 4468 ft 216 kts 205°
2026-05-07 16:22 8.21291 98.59679 3986 ft 217 kts 206°
2026-05-07 16:23 8.19949 98.58998 3624 ft 215 kts 206°
2026-05-07 16:23 8.18617 98.58322 3399 ft 214 kts 206°
2026-05-07 16:23 8.17302 98.57655 3271 ft 215 kts 205°
2026-05-07 16:23 8.15968 98.56978 3186 ft 214 kts 206°
2026-05-07 16:24 8.14673 98.56231 3128 ft 215 kts 218°
2026-05-07 16:24 8.13744 98.55052 3109 ft 217 kts 243°
2026-05-07 16:24 8.13376 98.53579 3107 ft 215 kts 264°
2026-05-07 16:24 8.13242 98.52102 2816 ft 208 kts 264°
2026-05-07 16:25 8.13111 98.50686 2633 ft 197 kts 264°
2026-05-07 16:25 8.12985 98.49352 2505 ft 185 kts 264°
2026-05-07 16:25 8.12868 98.48100 2391 ft 174 kts 264°
2026-05-07 16:25 8.12759 98.46922 2297 ft 164 kts 265°
2026-05-07 16:26 8.12653 98.45793 2227 ft 161 kts 265°
2026-05-07 16:26 8.12549 98.44701 2144 ft 153 kts 265°
2026-05-07 16:26 8.12449 98.43640 2062 ft 151 kts 264°
2026-05-07 16:26 8.12349 98.42590 1978 ft 150 kts 264°
2026-05-07 16:27 8.12248 98.41542 1892 ft 150 kts 265°
2026-05-07 16:27 8.12150 98.40489 1672 ft 150 kts 265°
2026-05-07 16:27 8.12053 98.39459 1455 ft 149 kts 265°
2026-05-07 16:27 8.11956 98.38415 1241 ft 149 kts 265°
2026-05-07 16:28 8.11859 98.37371 1032 ft 150 kts 265°
2026-05-07 16:28 8.11762 98.36327 833 ft 149 kts 264°
2026-05-07 16:28 8.11665 98.35288 625 ft 149 kts 264°
2026-05-07 16:28 8.11567 98.34248 390 ft 148 kts 264°
2026-05-07 16:29 8.11465 98.33209 159 ft 148 kts 264°
2026-05-07 16:29 8.11369 98.32213 68 ft 125 kts 265°
2026-05-07 16:29 8.11303 98.31514 38 ft 75 kts 264°
2026-05-07 16:29 8.11249 98.31186 30 ft 25 kts 226°
2026-05-07 16:30 8.11163 98.31046 30 ft 22 kts 235°
2026-05-07 16:30 8.11090 98.30935 29 ft 19 kts 248°
2026-05-07 16:30 8.11075 98.30794 29 ft 20 kts 264°
2026-05-07 16:30 8.11062 98.30688 28 ft 13 kts 249°
2026-05-07 16:31 8.11001 98.30683 28 ft 6 kts 175°
2026-05-07 16:31 8.10997 98.30684 28 ft 3 kts 174°
2026-05-07 16:31 8.10984 98.30685 28 ft 0 kts 174°